KINEIS-1B

Last updated on Mon Jun 22 2026 00:03:00 GMT+0000 (Coordinated Universal Time)

1 60079U 24114A 26172.51228206 .00000557 00000+0 79376-4 0 9990 2 60079 97.9828 196.6778 0003993 87.1143 273.0526 14.80630660108041
UTC large
Height (km)
Speed (km/s)
/
Latitude / Longitude
Inclination (degrees)
Orbital Period (minutes)
Azimuth
Elevation
Range (km)
Doppler Factor

Next 0 passes for location: London (51.5072 / 0.1276)

No passes found over London.
KINEIS-1B